Lapse_Rate
5.5 5.5 5.4 5.3 5.2 5.4 5.2 5.0 5.0 5.1 5.1 5.0 4.8 4.8 4.9 5.0 5.0 5.1 5.1 5.0 5.1 5.3 5.3 5.2 5.3 5.4 5.5 5.5 5.4 5.3 5.1 5.0 5.0 5.6 5.3 5.1 5.3 5.1 5.3 5.5 5.5 5.6 5.8
5.5 5.4 5.3 5.2 5.4 5.3 5.2 5.2 5.1 5.1 5.0 4.7 4.8 4.8 4.8 4.8 4.9 4.9 4.8 5.0 5.2 5.3 5.3 5.3 5.4 5.4 5.4 5.5 5.5 5.6 5.6 5.6 5.4 5.5 5.5 5.6 5.5 5.5 5.6 5.8 6.0 5.9 5.7
5.5 5.4 5.2 5.3 5.3 5.3 5.4 5.3 5.1 4.8 4.5 4.7 4.8 4.8 4.9 5.0 4.7 4.8 5.0 5.1 5.2 5.1 5.2 5.2 5.4 5.6 5.7 5.8 5.9 6.0 6.0 6.0 5.9 5.8 5.8 5.7 5.7 5.6 5.6 5.8 6.0 6.2 6.2
5.3 5.3 5.3 5.3 5.3 5.3 5.3 5.0 4.8 4.5 4.5 4.7 4.7 4.8 4.7 4.6 4.8 5.0 5.1 5.1 5.2 5.3 5.3 5.6 5.8 6.0 6.2 6.3 6.3 6.2 6.1 6.0 6.0 5.9 5.8 5.6 5.6 5.6 5.5 5.4 5.7 5.7 5.8
5.3 5.4 5.3 5.1 5.2 5.2 5.1 4.8 4.5 4.6 4.7 4.7 4.7 4.6 4.6 4.8 4.9 5.0 5.1 5.2 5.3 5.5 5.7 5.8 6.1 6.3 6.4 6.3 6.2 6.1 6.1 6.0 5.9 5.8 5.8 5.7 5.6 5.6 5.6 5.3 5.1 5.1 5.5
5.4 5.3 5.0 4.9 5.0 5.0 4.9 4.6 4.6 4.8 4.7 4.7 4.6 4.6 4.8 4.8 5.0 5.1 5.1 5.4 5.6 5.7 6.0 6.3 6.5 6.6 6.6 6.4 6.2 6.0 5.9 5.8 5.8 5.8 5.7 5.8 5.9 5.7 5.6 5.4 5.3 5.3 5.6
5.3 5.1 4.8 5.0 5.0 5.0 4.7 4.6 4.9 4.8 4.7 4.7 4.6 4.8 5.0 5.1 5.1 5.3 5.5 5.7 6.0 6.3 6.5 6.7 6.8 6.8 6.7 6.4 6.2 6.1 6.0 6.0 6.0 5.9 5.9 6.0 5.6 5.5 5.3 5.1 5.1 5.2 5.5
5.3 5.2 5.2 5.1 5.0 4.8 4.8 5.0 5.0 4.9 4.9 4.9 5.0 5.1 5.2 5.3 5.6 5.8 6.0 6.3 6.6 6.8 6.9 7.1 7.2 7.1 6.9 6.6 6.4 6.3 6.2 6.3 6.5 6.7 6.6 6.1 5.8 5.4 5.0 4.8 4.9 5.2 5.7
5.3 5.3 5.2 5.0 5.1 5.1 5.1 5.1 5.0 5.0 5.2 5.2 5.2 5.3 5.5 5.8 5.9 6.2 6.5 6.8 7.0 7.2 7.4 7.5 7.5 7.4 7.2 6.8 6.6 6.4 6.5 6.7 6.8 7.0 6.7 6.3 5.9 5.6 5.3 5.0 5.2 5.1 5.7
5.5 5.2 5.2 5.2 5.2 5.3 5.2 5.0 5.1 5.3 5.2 5.3 5.5 5.6 5.8 6.1 6.3 6.7 6.9 7.1 7.3 7.5 7.7 7.7 7.7 7.5 7.4 7.1 6.7 6.6 6.8 7.1 7.3 7.2 7.2 6.7 6.2 6.0 5.9 5.6 5.4 5.4 5.4
5.2 5.3 5.3 5.3 5.4 5.3 5.2 5.4 5.3 5.3 5.4 5.5 5.7 5.9 6.2 6.6 6.9 7.0 7.3 7.6 7.7 7.9 7.9 7.9 7.8 7.6 7.6 7.3 7.1 7.4 7.3 7.5 7.7 7.4 6.8 6.5 6.3 6.3 6.4 6.3 6.2 6.0 5.6
5.3 5.4 5.5 5.3 5.3 5.4 5.6 5.5 5.5 5.4 5.6 5.8 6.0 6.3 6.7 7.0 7.3 7.6 7.7 7.8 7.9 8.1 8.1 8.1 7.9 7.9 7.8 7.6 7.6 7.8 7.9 7.8 7.7 7.2 6.9 6.7 6.7 6.8 6.7 6.4 6.2 5.8 5.3
5.3 5.3 5.4 5.4 5.5 5.6 5.6 5.5 5.5 5.6 5.9 6.2 6.5 6.9 7.3 7.5 7.8 7.9 7.9 7.9 7.9 8.0 8.1 8.1 8.1 8.1 7.8 7.7 7.7 8.0 8.1 7.9 7.6 7.1 6.8 6.6 6.5 6.5 6.3 6.1 5.9 5.5 5.3
5.5 5.4 5.4 5.6 5.7 5.7 5.7 5.7 5.8 6.0 6.3 6.5 6.9 7.4 7.6 7.9 8.0 7.8 7.9 7.9 7.9 8.1 8.2 8.2 8.2 8.1 7.9 7.8 7.7 8.1 8.1 7.8 7.4 6.8 6.4 6.3 6.2 6.2 6.0 5.7 5.7 5.6 5.6
5.5 5.6 5.7 5.8 5.9 5.9 6.0 6.1 6.3 6.5 6.7 6.8 7.1 7.6 7.7 7.8 7.8 7.9 7.9 7.9 8.0 8.1 8.2 8.3 8.2 8.1 8.0 7.9 8.0 8.2 8.1 7.8 7.1 6.4 6.1 6.0 6.1 6.1 6.1 5.9 5.7 5.5 5.4
5.9 6.0 6.0 6.0 6.1 6.2 6.3 6.5 6.7 6.8 6.8 7.1 7.4 7.6 7.6 7.7 7.8 7.8 7.8 7.9 8.0 8.1 8.2 8.2 8.1 8.0 8.0 8.1 8.2 8.3 8.1 7.8 6.9 6.3 6.2 6.0 6.1 6.2 6.2 6.2 5.9 5.8 5.6
6.1 6.2 6.3 6.4 6.5 6.6 6.8 6.8 6.8 6.8 7.0 7.3 7.4 7.6 7.7 7.7 7.6 7.7 8.0 8.0 7.9 7.9 8.1 8.1 8.0 8.1 8.1 8.3 8.3 8.2 8.1 7.6 6.8 6.3 6.2 6.2 6.1 6.2 6.1 6.1 6.2 5.9 5.8
6.5 6.7 6.9 6.9 6.9 6.9 6.9 7.0 7.0 7.0 7.1 7.3 7.5 7.6 7.6 7.8 7.8 7.8 7.8 7.7 7.8 7.9 7.8 7.8 7.8 8.0 8.4 8.4 8.3 8.1 7.9 7.4 6.6 6.4 6.2 6.2 6.0 6.0 6.0 6.0 6.0 5.8 5.9
6.9 7.0 7.1 7.0 6.9 6.9 7.0 6.9 6.9 7.1 7.2 7.4 7.6 7.6 7.7 7.8 7.8 7.8 7.8 7.7 7.6 7.6 7.5 7.4 7.8 8.2 8.5 8.3 8.1 8.0 7.8 7.2 6.7 6.5 6.3 6.2 5.9 5.9 5.9 5.8 5.7 5.7 5.7
7.2 7.0 6.9 7.0 7.1 7.1 7.1 7.0 7.1 7.2 7.3 7.4 7.6 7.7 7.7 7.9 7.9 7.8 7.7 7.5 7.2 7.2 7.3 7.4 7.2 7.6 8.1 8.0 7.9 7.9 7.7 7.0 6.6 6.4 6.4 6.2 5.9 5.8 5.7 5.7 5.6 5.7 5.6
7.0 6.9 7.1 7.2 7.2 7.0 7.1 7.2 7.2 7.2 7.4 7.6 7.7 7.9 7.9 7.9 8.0 7.7 7.4 7.1 7.2 7.2 6.7 6.8 6.8 7.0 7.3 7.5 7.6 7.7 7.5 6.8 6.5 6.4 6.2 6.0 5.9 5.8 5.6 5.5 5.4 5.5 5.4
7.1 7.2 7.2 7.2 7.1 7.1 7.3 7.3 7.4 7.4 7.7 7.9 7.9 7.9 7.8 7.6 7.3 7.0 7.0 7.0 6.7 6.7 6.3 6.3 6.5 6.7 6.7 7.0 7.2 7.4 7.1 6.6 6.3 6.2 6.2 5.9 5.7 5.6 5.5 5.4 5.5 5.4 5.5
7.0 7.1 7.2 7.1 7.2 7.3 7.4 7.5 7.6 7.8 8.0 8.0 7.8 7.6 7.4 7.1 6.9 6.6 6.2 5.8 5.6 5.5 5.3 5.5 5.8 6.6 6.7 6.7 6.9 6.9 6.7 6.3 6.2 6.1 6.1 5.9 5.6 5.4 5.3 5.4 5.4 5.5 5.6
7.1 7.1 7.2 7.3 7.4 7.6 7.7 7.6 7.7 7.9 7.8 7.6 7.5 7.2 6.9 6.7 6.5 6.1 5.6 5.3 5.1 4.8 4.9 5.2 5.6 6.3 6.6 6.5 6.6 6.4 6.2 6.1 6.0 5.9 6.0 6.0 5.6 5.4 5.3 5.4 5.3 5.4 5.4
7.2 7.4 7.5 7.6 7.7 7.7 7.8 7.8 7.8 7.6 7.4 7.3 7.1 6.8 6.6 6.4 6.0 5.5 5.2 5.0 4.8 4.7 4.9 5.2 5.5 6.0 6.3 6.3 6.2 6.0 6.0 5.9 5.9 5.8 5.8 5.8 5.6 5.4 5.3 5.3 5.4 5.3 5.2
7.6 7.6 7.7 7.7 7.8 7.7 7.7 7.5 7.3 7.1 7.1 6.9 6.8 6.6 6.4 6.0 5.6 5.3 5.3 5.3 5.3 5.2 5.3 5.4 5.7 5.9 6.0 6.0 5.8 5.9 5.8 5.8 5.8 5.6 5.8 5.6 5.5 5.4 5.3 5.3 5.3 5.2 5.3
Wind_Speed
8 7 7 7 7 7 7 7 10 12 11 10 10 9 9 9 8 7 5 4 3 3 3 4 4 5 3 3 4 3 3 2 6 11 5 13 14 14 22 24 23 25 24
8 7 8 7 7 7 7 7 14 9 11 10 10 9 8 7 6 5 3 2 2 2 2 3 4 3 4 3 3 4 3 3 4 14 11 9 10 15 18 20 23 22 22
9 8 7 8 8 7 8 8 12 11 10 10 9 6 6 6 4 2 2 0 1 2 3 4 4 4 4 3 3 4 3 6 5 8 12 9 9 13 11 15 17 21 20
10 9 8 8 8 7 8 7 9 13 8 8 8 8 7 5 3 2 2 1 2 3 5 6 5 5 5 4 4 4 6 6 6 8 10 10 9 10 9 10 11 9 11
11 10 9 8 7 7 8 8 9 10 9 10 8 7 6 5 4 3 1 1 3 5 5 7 9 10 11 13 5 5 5 5 6 8 10 10 10 10 11 10 11 12 12
11 11 8 8 8 8 8 8 7 6 6 7 6 6 5 4 7 7 6 4 3 5 5 5 8 9 12 14 15 17 15 7 8 7 10 11 14 12 11 11 12 12 15
9 8 8 10 9 9 9 9 8 8 6 6 6 6 6 6 9 10 10 5 4 4 6 7 6 8 8 8 13 17 18 20 22 15 15 14 16 15 15 16 15 15 15
10 9 8 9 9 8 9 9 6 6 7 5 6 6 6 6 13 12 10 6 5 6 9 8 7 7 9 10 8 11 11 14 17 17 13 13 15 19 17 14 16 16 13
10 10 9 10 9 10 10 10 6 6 5 5 4 6 7 5 12 12 10 3 6 7 10 11 10 8 14 16 11 8 10 9 16 25 30 31 33 35 33 15 11 11 12
10 11 9 9 10 11 11 10 6 5 7 6 6 6 6 5 12 12 11 3 4 6 6 11 14 15 17 18 9 6 7 10 12 11 13 20 22 21 25 18 10 11 11
7 7 8 9 11 10 8 5 7 6 6 6 6 4 5 7 9 14 14 6 5 4 5 5 6 16 18 19 16 6 9 16 8 7 8 8 12 12 14 16 17 10 11
8 8 8 8 7 7 9 5 6 7 6 5 4 3 4 6 13 15 16 17 15 8 6 6 7 17 19 16 15 19 22 15 3 4 6 8 8 9 9 17 21 20 19
8 7 6 6 5 6 8 7 4 5 6 6 6 6 5 5 6 15 16 17 19 10 6 11 20 13 11 10 13 17 12 2 3 3 6 8 8 10 18 16 19 20 20
7 6 5 6 5 4 4 5 5 6 6 5 5 5 3 3 5 5 5 9 14 12 13 9 9 12 10 9 3 8 5 3 5 5 7 8 9 8 9 8 9 10 10
5 5 5 4 5 5 3 4 4 2 5 4 4 4 4 4 4 9 8 5 6 10 10 2 1 1 2 2 2 3 3 3 4 5 5 7 8 9 9 9 9 9 9
5 5 5 5 4 4 4 2 10 11 13 15 13 8 3 8 12 15 17 19 20 20 2 2 2 3 3 2 2 3 2 4 3 4 5 7 8 8 9 10 9 8 9
5 6 5 5 5 5 4 4 3 5 13 15 15 15 17 14 17 18 19 19 18 16 3 3 3 3 3 3 3 3 5 5 3 4 6 7 7 8 10 9 9 9 10
4 6 5 4 4 4 3 2 2 2 2 1 6 9 11 14 16 17 17 15 9 6 3 3 3 3 3 3 3 2 4 5 4 4 5 6 7 8 9 9 9 10 10
5 4 4 4 4 4 3 3 2 2 1 2 1 5 6 14 17 18 19 8 6 3 3 3 4 3 3 3 3 3 4 5 5 4 5 6 6 7 9 9 10 14 14
5 8 6 5 4 3 2 2 2 2 2 2 2 2 2 1 1 2 3 4 2 2 2 3 3 3 3 4 3 3 4 3 4 3 3 5 6 6 8 9 9 10 11
5 4 6 4 3 2 2 2 1 1 1 1 2 3 12 5 5 4 4 4 4 4 4 3 4 4 3 4 3 3 4 5 4 3 3 5 6 7 8 8 9 10 10
4 4 3 3 2 2 1 1 1 1 2 2 3 3 14 4 3 2 4 4 3 4 6 4 3 4 5 5 4 4 4 5 4 3 3 6 6 7 7 8 9 9 9
4 4 3 2 2 3 1 1 1 2 3 3 3 3 2 3 4 4 4 4 2 4 9 9 6 6 11 15 17 12 5 6 7 8 4 6 7 7 7 8 9 8 8
3 3 3 2 2 1 0 2 3 4 3 3 3 3 4 4 4 5 6 6 5 8 9 9 10 12 12 14 19 19 19 19 19 17 13 7 8 9 8 8 8 9 8
3 3 2 2 1 2 2 2 3 3 3 4 3 3 3 4 3 4 5 5 5 6 9 10 11 14 17 19 20 20 21 20 21 20 17 13 11 12 10 9 7 6 7
2 2 1 1 2 2 3 3 3 3 4 3 3 4 4 4 3 4 3 4 4 6 10 11 13 17 19 19 20 21 21 20 19 20 19 14 9 9 7 7 7 4 5
Wind_Direction
141 140 134 136 142 134 133 130 141 151 154 144 143 139 125 111 95 97 96 84 61 31 12 25 329 328 329 335 327 316 304 299 287 298 308 310 314 314 317 318 317 315 313
145 140 148 151 147 139 141 143 152 153 153 152 152 134 120 110 97 92 103 85 60 358 332 330 308 329 319 315 308 309 298 288 286 293 304 308 309 316 311 312 314 310 312
149 151 158 163 155 153 151 149 155 148 153 159 153 134 123 104 110 117 140 180 334 306 294 288 293 299 295 297 305 314 313 300 281 286 298 306 307 314 309 306 308 308 309
157 158 168 170 162 163 153 152 152 162 163 168 154 134 129 142 159 196 195 279 285 286 285 282 280 279 283 304 316 295 298 298 297 293 297 304 304 310 303 308 307 307 307
167 169 179 163 161 160 154 155 158 166 173 166 147 147 160 168 204 193 124 296 286 282 283 282 276 273 279 289 286 264 262 281 283 290 294 297 300 307 306 307 298 302 298
172 180 164 164 167 163 156 161 156 161 164 154 162 174 181 189 211 212 226 227 259 282 285 280 280 286 283 285 288 289 285 285 278 285 288 288 294 297 296 295 294 297 296
167 167 170 170 169 165 159 156 167 178 169 175 184 184 196 206 221 225 234 240 259 270 276 277 277 275 284 284 284 286 286 285 282 291 292 287 290 289 290 289 287 285 284
172 172 169 169 168 157 158 171 172 172 178 180 190 194 198 212 222 227 233 238 250 259 262 263 264 271 266 273 272 269 268 269 277 282 283 288 287 291 287 293 297 297 291
175 176 178 170 165 164 178 181 181 168 178 182 184 191 205 208 225 230 232 216 254 258 261 261 256 259 262 280 274 276 286 288 299 302 300 302 307 307 306 308 301 299 296
174 183 175 168 171 183 185 182 172 172 190 187 195 199 205 199 225 234 236 206 241 260 265 268 264 264 270 281 288 290 304 305 303 305 319 314 311 306 309 305 300 293 294
158 158 166 176 184 187 171 159 168 170 168 184 198 200 192 195 219 241 243 229 234 254 258 262 265 280 287 287 296 314 299 301 338 326 316 311 308 308 308 305 304 307 308
157 163 169 172 173 167 170 158 165 167 175 186 176 219 213 213 216 237 241 239 238 241 237 251 260 278 282 288 306 309 304 324 334 310 305 304 305 305 307 309 304 301 295
150 163 160 152 157 156 161 163 150 166 184 196 207 223 228 214 208 235 233 239 244 255 251 254 266 286 297 313 305 300 318 336 287 288 294 297 300 307 308 308 304 302 297
154 156 152 154 146 146 149 165 176 185 196 199 207 224 200 201 193 203 221 245 259 263 263 274 260 267 281 295 316 290 282 268 276 282 291 298 307 307 307 310 309 310 308
144 144 144 146 160 161 171 173 185 201 188 184 206 192 191 218 216 221 220 218 227 238 242 156 126 207 230 250 267 265 261 265 277 276 290 302 301 304 306 311 308 306 301
148 156 163 161 167 162 174 213 230 217 226 237 230 193 228 234 243 246 252 255 255 249 217 161 212 205 214 214 243 266 253 266 264 284 297 293 298 305 305 307 306 305 302
158 158 158 162 167 177 166 166 185 249 237 239 238 244 251 243 246 257 263 265 267 270 162 206 203 203 221 222 230 247 275 279 272 281 290 294 299 301 304 305 307 312 307
115 132 145 153 151 141 146 159 145 152 192 291 273 272 276 278 278 275 271 270 264 209 169 189 211 214 224 229 232 232 272 284 279 280 285 289 290 296 302 304 307 313 307
117 104 109 102 83 88 90 85 97 107 179 220 261 276 288 281 283 279 274 268 258 223 192 202 206 205 220 229 235 235 252 272 276 278 282 284 291 297 297 300 306 308 302
86 93 88 100 103 108 121 140 163 196 225 229 235 237 266 40 296 277 272 273 238 227 210 220 222 219 221 227 230 233 258 265 267 256 266 281 290 291 295 303 303 304 307
97 86 104 96 115 133 141 154 167 175 240 255 259 256 279 254 244 224 232 241 230 218 216 216 223 228 231 233 219 232 244 263 255 254 259 285 290 294 298 295 296 296 309
102 115 108 114 107 116 135 145 211 224 251 269 280 289 295 316 309 280 281 280 244 206 209 214 222 225 234 230 225 232 240 255 253 249 260 281 286 288 292 293 296 301 313
106 119 111 118 134 129 122 212 229 244 251 255 259 267 264 265 267 268 265 263 248 239 235 226 236 253 252 252 252 242 235 254 243 249 265 283 285 285 288 288 291 308 313
98 99 112 119 120 105 111 253 250 250 250 252 256 260 266 263 261 267 273 274 259 246 246 244 248 254 262 258 259 258 256 260 266 264 255 271 279 284 279 281 288 303 304
90 91 86 103 135 196 239 253 253 254 250 247 255 257 253 259 260 261 262 262 252 250 260 257 256 258 260 263 265 265 269 266 267 268 265 261 260 265 265 269 288 297 299
120 134 177 178 207 224 227 239 248 250 253 258 254 259 256 256 253 262 260 261 261 262 263 263 259 261 265 271 273 276 277 270 265 262 249 248 255 263 280 269 276 274 284